Weather History for Cody, WY

Change the Weather History Date:

Thursday, April 24, 2014

  Actual Average Record
Temperature  
Mean Temperature 47 °F -  
Max Temperature 57 °F 59 °F 82 °F (1946)
Min Temperature 37 °F 35 °F 16 °F (1937)
Degree Days  
Heating Degree Days 18    
Moisture  
Dew Point 23 °F    
Average Humidity 38    
Maximum Humidity 61    
Minimum Humidity 28    
Precipitation  
Precipitation 0.00 in - - ()
Sea Level Pressure  
Sea Level Pressure 29.85 in    
Wind  
Wind Speed 14 mph (WSW)    
Max Wind Speed 23 mph    
Max Gust Speed 37 mph    
Visibility 10 miles    
Events      
Averages and records for this station are not official NWS values.
T = Trace of Precipitation, MM = Missing Value Source: NWS Daily Summary

Daily Weather History Graph

Daily Weather History Graph

Search for Another Location

Airport:

Trip Planner

Search our weather history database for the weather conditions in past years. The results will help you decide how hot, cold, wet, or windy it might be!

Date:

Astronomy

Apr. 24, 2014 Rise Set
Actual Time 6:17 AM MDT 8:12 PM MDT
Civil Twilight 5:45 AM MDT 8:43 PM MDT
Nautical Twilight 5:07 AM MDT 9:21 PM MDT
Astronomical Twilight 4:25 AM MDT 10:03 PM MDT
Moon 3:42 AM MDT 3:20 PM MDT
Length of Visible Light 14h 57m
Length of Day
13h 55m
Waning Crescent, 24% of the Moon is Illuminated
Apr 24
Waning Crescent
Apr 29
New
May 6
First Quarter
May 14
Full
May 21
Last Quarter

Hourly Weather History & Observations

Time (MDT) Temp. Windchill Dew Point Humidity Pressure Visibility Wind Dir Wind Speed Gust Speed Precip Events Conditions
12:15 AM 37.4 °F 28.9 °F 21.2 °F 52% 29.87 in 10.0 mi SW 13.8 mph - N/A   Clear
12:35 AM 37.4 °F 30.3 °F 21.2 °F 52% 29.88 in 10.0 mi SW 10.4 mph - N/A   Clear
12:55 AM 39.2 °F 32.0 °F 19.4 °F 45% 29.88 in 10.0 mi SW 11.5 mph - N/A   Clear
1:15 AM 39.2 °F 32.0 °F 19.4 °F 45% 29.88 in 10.0 mi SW 11.5 mph 16.1 mph N/A   Clear
1:35 AM 41.0 °F 35.2 °F 19.4 °F 42% 29.88 in 10.0 mi SW 9.2 mph 20.7 mph N/A   Clear
1:55 AM 41.0 °F 34.7 °F 19.4 °F 42% 29.88 in 10.0 mi SW 10.4 mph 18.4 mph N/A   Clear
2:15 AM 41.0 °F 34.3 °F 19.4 °F 42% 29.88 in 10.0 mi WSW 11.5 mph 18.4 mph N/A   Clear
2:35 AM 42.8 °F 35.8 °F 19.4 °F 39% 29.86 in 10.0 mi WSW 13.8 mph 25.3 mph N/A   Clear
2:55 AM 42.8 °F 33.5 °F 17.6 °F 36% 29.86 in 10.0 mi West 23.0 mph 31.1 mph N/A   Clear
3:15 AM 42.8 °F 34.0 °F 17.6 °F 36% 29.86 in 10.0 mi WSW 20.7 mph 32.2 mph N/A   Clear
3:35 AM 42.8 °F 34.0 °F 17.6 °F 36% 29.86 in 10.0 mi West 20.7 mph 36.8 mph N/A   Clear
3:55 AM 42.8 °F 34.3 °F 17.6 °F 36% 29.87 in 10.0 mi West 19.6 mph 25.3 mph N/A   Clear
4:15 AM 42.8 °F 36.2 °F 17.6 °F 36% 29.87 in 10.0 mi West 12.7 mph 24.2 mph N/A   Clear
4:35 AM 42.8 °F 33.8 °F 17.6 °F 36% 29.87 in 10.0 mi West 21.9 mph 27.6 mph N/A   Clear
4:55 AM 42.8 °F 35.4 °F 17.6 °F 36% 29.88 in 10.0 mi WSW 15.0 mph 23.0 mph N/A   Clear
5:15 AM 41.0 °F 33.5 °F 17.6 °F 39% 29.88 in 10.0 mi WSW 13.8 mph 28.8 mph N/A   Clear
5:35 AM 41.0 °F 33.1 °F 17.6 °F 39% 29.88 in 10.0 mi WSW 15.0 mph 25.3 mph N/A   Clear
5:55 AM 42.8 °F 34.8 °F 17.6 °F 36% 29.87 in 10.0 mi West 17.3 mph 31.1 mph N/A   Clear
6:15 AM 41.0 °F 32.5 °F 17.6 °F 39% 29.88 in 10.0 mi WSW 17.3 mph 26.5 mph N/A   Clear
6:35 AM 42.8 °F 34.5 °F 17.6 °F 36% 29.89 in 10.0 mi WSW 18.4 mph 27.6 mph N/A   Clear
6:55 AM 42.8 °F 35.8 °F 17.6 °F 36% 29.89 in 10.0 mi WSW 13.8 mph 25.3 mph N/A   Clear
7:15 AM 42.8 °F 34.5 °F 17.6 °F 36% 29.88 in 10.0 mi WSW 18.4 mph 28.8 mph N/A   Clear
7:35 AM 44.6 °F 37.4 °F 17.6 °F 34% 29.89 in 10.0 mi WSW 16.1 mph 26.5 mph N/A   Clear
7:55 AM 44.6 °F 37.2 °F 19.4 °F 37% 29.90 in 10.0 mi WSW 17.3 mph 27.6 mph N/A   Clear
8:15 AM 44.6 °F 36.6 °F 19.4 °F 37% 29.89 in 10.0 mi WSW 19.6 mph 29.9 mph N/A   Clear
8:35 AM 46.4 °F 40.4 °F 19.4 °F 34% 29.89 in 10.0 mi WSW 13.8 mph 23.0 mph N/A   Clear
8:55 AM 46.4 °F 40.7 °F 19.4 °F 34% 29.88 in 10.0 mi West 12.7 mph 26.5 mph N/A   Clear
9:15 AM 46.4 °F 41.1 °F 19.4 °F 34% 29.88 in 10.0 mi West 11.5 mph 20.7 mph N/A   Clear
9:35 AM 46.4 °F 41.1 °F 21.2 °F 37% 29.88 in 10.0 mi SW 11.5 mph 18.4 mph N/A   Clear
9:55 AM 48.2 °F - 21.2 °F 34% 29.87 in 10.0 mi WSW 11.5 mph 25.3 mph N/A   Clear
10:15 AM 50.0 °F - 21.2 °F 32% 29.86 in 10.0 mi WSW 10.4 mph 17.3 mph N/A   Clear
10:35 AM 51.8 °F - 21.2 °F 30% 29.86 in 10.0 mi WSW 13.8 mph 19.6 mph N/A   Clear
10:55 AM 51.8 °F - 21.2 °F 30% 29.85 in 10.0 mi SW 15.0 mph 21.9 mph N/A   Clear
11:15 AM 53.6 °F - 23.0 °F 30% 29.86 in 10.0 mi West 11.5 mph - N/A   Clear
11:35 AM 53.6 °F - 21.2 °F 28% 29.84 in 10.0 mi WSW 10.4 mph 19.6 mph N/A   Clear
11:55 AM 55.4 °F - 24.8 °F 31% 29.84 in 10.0 mi WSW 13.8 mph 18.4 mph N/A   Clear
12:15 PM 55.4 °F - 23.0 °F 29% 29.83 in 10.0 mi SW 12.7 mph 21.9 mph N/A   Clear
12:35 PM 55.4 °F - 24.8 °F 31% 29.82 in 10.0 mi West 16.1 mph 21.9 mph N/A   Clear
12:55 PM 55.4 °F - 24.8 °F 31% 29.81 in 10.0 mi West 12.7 mph 18.4 mph N/A   Partly Cloudy
1:15 PM 53.6 °F - 21.2 °F 28% 29.81 in 10.0 mi West 13.8 mph 20.7 mph N/A   Mostly Cloudy
1:35 PM 53.6 °F - 23.0 °F 30% 29.81 in 10.0 mi West 13.8 mph 19.6 mph N/A   Overcast
1:55 PM 53.6 °F - 23.0 °F 30% 29.80 in 10.0 mi West 11.5 mph 18.4 mph N/A   Overcast
2:15 PM 53.6 °F - 24.8 °F 33% 29.80 in 10.0 mi West 13.8 mph 20.7 mph N/A   Overcast
2:35 PM 55.4 °F - 24.8 °F 31% 29.81 in 10.0 mi West 18.4 mph 23.0 mph N/A   Overcast
2:55 PM 57.2 °F - 26.6 °F 31% 29.80 in 10.0 mi West 12.7 mph 24.2 mph N/A   Overcast
3:15 PM 55.4 °F - 26.6 °F 33% 29.80 in 10.0 mi West 12.7 mph 19.6 mph N/A   Overcast
3:35 PM 57.2 °F - 24.8 °F 29% 29.80 in 10.0 mi West 13.8 mph 21.9 mph N/A   Overcast
3:55 PM 57.2 °F - 24.8 °F 29% 29.79 in 10.0 mi WSW 9.2 mph 21.9 mph N/A   Mostly Cloudy
4:15 PM 57.2 °F - 24.8 °F 29% 29.79 in 10.0 mi West 18.4 mph 31.1 mph N/A   Clear
4:35 PM 57.2 °F - 24.8 °F 29% 29.79 in 10.0 mi West 15.0 mph 27.6 mph N/A   Clear
4:55 PM 55.4 °F - 24.8 °F 31% 29.78 in 10.0 mi West 9.2 mph 27.6 mph N/A   Clear
5:15 PM 55.4 °F - 24.8 °F 31% 29.78 in 10.0 mi West 15.0 mph 28.8 mph N/A   Clear
5:35 PM 55.4 °F - 24.8 °F 31% 29.78 in 10.0 mi West 17.3 mph 27.6 mph N/A   Clear
5:55 PM 53.6 °F - 26.6 °F 35% 29.79 in 10.0 mi West 16.1 mph 29.9 mph N/A   Clear
6:15 PM 53.6 °F - 26.6 °F 35% 29.80 in 10.0 mi West 16.1 mph 28.8 mph N/A   Clear
6:35 PM 51.8 °F - 26.6 °F 38% 29.81 in 10.0 mi West 21.9 mph 34.5 mph N/A   Clear
6:55 PM 51.8 °F - 26.6 °F 38% 29.80 in 10.0 mi West 20.7 mph 32.2 mph N/A   Clear
7:15 PM 50.0 °F - 26.6 °F 40% 29.81 in 10.0 mi West 19.6 mph 29.9 mph N/A   Clear
7:35 PM 48.2 °F - 26.6 °F 43% 29.82 in 10.0 mi West 10.4 mph 20.7 mph N/A   Clear
7:55 PM 48.2 °F - 26.6 °F 43% 29.85 in 10.0 mi North 5.8 mph - N/A   Clear
8:15 PM 46.4 °F 40.7 °F 28.4 °F 50% 29.85 in 10.0 mi WNW 12.7 mph 25.3 mph N/A   Partly Cloudy
8:35 PM 46.4 °F 41.1 °F 28.4 °F 50% 29.85 in 10.0 mi WNW 11.5 mph 19.6 mph N/A   Mostly Cloudy
8:55 PM 46.4 °F 40.7 °F 30.2 °F 53% 29.85 in 10.0 mi West 12.7 mph - N/A   Scattered Clouds
9:15 PM 46.4 °F 41.5 °F 28.4 °F 50% 29.86 in 10.0 mi West 10.4 mph - N/A   Clear
9:35 PM 46.4 °F 42.9 °F 28.4 °F 50% 29.87 in 10.0 mi WSW 6.9 mph - N/A   Clear
9:55 PM 48.2 °F - 28.4 °F 46% 29.87 in 10.0 mi SW 6.9 mph - N/A   Scattered Clouds
10:15 PM 48.2 °F - 28.4 °F 46% 29.86 in 10.0 mi WSW 11.5 mph - N/A   Mostly Cloudy
10:35 PM 46.4 °F 41.1 °F 28.4 °F 50% 29.86 in 10.0 mi West 11.5 mph - N/A   Partly Cloudy
10:55 PM 48.2 °F - 28.4 °F 46% 29.87 in 10.0 mi West 5.8 mph 20.7 mph N/A   Clear
11:15 PM 46.4 °F 40.4 °F 30.2 °F 53% 29.86 in 10.0 mi WSW 13.8 mph 19.6 mph N/A   Scattered Clouds
11:35 PM 46.4 °F 39.2 °F 30.2 °F 53% 29.85 in 10.0 mi West 18.4 mph 29.9 mph N/A   Mostly Cloudy
11:55 PM 44.6 °F 38.8 °F 32.0 °F 61% 29.85 in 10.0 mi West 11.5 mph 23.0 mph N/A   Mostly Cloudy